This is the latest recevied weather packets stored in our database for station/object EA3ANS-1. If no packets are shown the sender has not sent any weather packets the latest 10 day(s).
| Time | Temp. | Humidity | Pressure | Rain* | Wind** | Luminosity | Snow |
|---|---|---|---|---|---|---|---|
| 1777488635 | 20° C | - | 1012.1 hPa | 0 mm | 1.34 m/s, 152° | - | - |
| 1777488038 | 20.56° C | - | 1012 hPa | 0 mm | 1.34 m/s, 179° | - | - |
| 1777487436 | 21.11° C | - | 1011.7 hPa | 0 mm | 0.89 m/s, 125° | - | - |
| 1777486838 | 21.67° C | - | 1010.9 hPa | 0 mm | 1.79 m/s, 165° | - | - |
| 1777486234 | 21.67° C | - | 1011.5 hPa | 0 mm | 1.79 m/s, 155° | - | - |
| 1777485636 | 22.22° C | - | 1011.2 hPa | 0 mm | 2.24 m/s, 108° | - | - |
| 1777485036 | 22.22° C | - | 1010.9 hPa | 0 mm | 1.34 m/s, 115° | - | - |
| 1777484438 | 22.78° C | - | 1011.4 hPa | 0 mm | 1.79 m/s, 155° | - | - |
| 1777483835 | 22.78° C | - | 1011.2 hPa | 0 mm | 1.34 m/s, 186° | - | - |
| 1777483234 | 22.78° C | - | 1011.3 hPa | 0 mm | 1.79 m/s, 159° | - | - |
| 1777482637 | 22.78° C | - | 1011.2 hPa | 0 mm | 2.68 m/s, 148° | - | - |
| 1777482034 | 23.33° C | - | 1011.1 hPa | 0 mm | 1.79 m/s, 173° | - | - |
| 1777481437 | 23.33° C | - | 1011 hPa | 0 mm | 1.79 m/s, 180° | - | - |
| 1777480839 | 23.33° C | - | 1011.1 hPa | 0 mm | 2.24 m/s, 172° | - | - |
| 1777480231 | 23.33° C | - | 1011.2 hPa | 0 mm | 2.24 m/s, 231° | - | - |
| 1777479633 | 23.89° C | - | 1011.2 hPa | 0 mm | 0.45 m/s, 162° | - | - |
| 1777479036 | 23.89° C | - | 1011.2 hPa | 0 mm | 1.34 m/s, 156° | - | - |
| 1777478438 | 23.33° C | - | 1011 hPa | 0 mm | 0.45 m/s, 107° | - | - |
| 1777477835 | 23.33° C | - | 1011 hPa | 0 mm | 3.13 m/s, 165° | - | - |
| 1777477237 | 23.33° C | - | 1011 hPa | 0 mm | 3.13 m/s, 105° | - | - |
| 1777476632 | 23.89° C | - | 1010.9 hPa | 0 mm | 3.13 m/s, 134° | - | - |
| 1777476034 | 23.89° C | - | 1011 hPa | 0 mm | 2.68 m/s, 136° | - | - |
| 1777475434 | 23.89° C | - | 1011 hPa | 0 mm | 2.68 m/s, 148° | - | - |
| 1777474837 | 24.44° C | - | 1010.9 hPa | 0 mm | 2.68 m/s, 91° | - | - |
| 1777474240 | 23.33° C | - | 1011.2 hPa | 0 mm | 3.13 m/s, 146° | - | - |
* Rain latest hour (hover to see other rain measurements)
** Current wind speed in m/s (hover to see current wind gust speed)